Flag for Germany Weather past 2 weeks in Rostock, Mecklenburg-Western Pomerania, Germany

Now
66 °F

Overcast.


Feels Like: 66 °F
Forecast: 57 / 66 °F
Wind: 6 mph from West

Location: Rostock-Warnemuende

Current Time: Sep 1, 2015 at 4:32:40 PM

Latest Report: Sep 1, 2015 at 4:00 PM


Visibility: 37 mi

Pressure: 29.75 "Hg

Humidity: 73%

Dew point: 57 °F

Location of RostockLocation

Historic Weather in Rostock — Graph

°F

Rostock temperature yesterday

Maximum temperature yesterday: 71 °F (at 6:00 PM)
Minimum temperature yesterday: 61 °F (at 5:00 AM)
Average temperature yesterday: 66 °F

Past Weeks' High & Low Weather Summary

 TemperatureHumidityPressure
High80 °F (Aug 19, 3:00 PM)96% (Aug 25, 2:00 AM)30.33 "Hg (Aug 25, 2:00 AM)
Low55 °F (Aug 29, 6:00 AM)22% (Aug 21, 2:00 PM)29.67 "Hg (Sep 1, 2:00 AM)
Average66 °F69%30.01 "Hg
* Reported Aug 17 3:00 PM — Sep 1 3:00 PM, Rostock, Weather by CustomWeather, © 2015

Note: Actual official high and low records may vary slightly from our data, if they occured in-between our weather recording intervals... More about our weather records

Advertising

Rostock weather history for previous 24 hours

 ConditionsComfort  
Time TempWeatherWind HumidityBarometerVisibility
3:00 PM
Tue, Sep 1
67 °FOvercast.9 mph72%29.75 "Hg22 mi
2:00 PM68 °FOvercast.8 mph76%29.72 "Hg28 mi
1:00 PM72 °FOvercast.5 mph68%29.71 "Hg19 mi
12:00 PM71 °FOvercast.5 mph73%29.71 "Hg8 mi
11:00 AM72 °FOvercast.5 mph73%29.69 "Hg9 mi
10:00 AM71 °FPartly sunny.3 mph77%29.70 "Hg9 mi
9:00 AM69 °FScattered clouds.3 mph80%29.70 "Hg9 mi
8:00 AM68 °FPassing clouds.3 mph86%29.70 "Hg6 mi
7:00 AM68 °FScattered clouds.5 mph86%29.70 "Hg5 mi
6:00 AM68 °FFog.5 mph89%29.69 "Hg3 mi
5:00 AM67 °FFog.2 mph90%29.69 "Hg4 mi
4:00 AM67 °FClear.2 mph91%29.67 "Hg5 mi
3:00 AM67 °FClear.6 mph91%29.67 "Hg6 mi
2:00 AM70 °FClear.3 mph86%29.67 "Hg9 mi
1:00 AM70 °FPassing clouds.3 mph85%29.68 "Hg9 mi
11:00 PM
Mon, Aug 31
69 °FPassing clouds.6 mph83%29.71 "Hg9 mi
10:00 PM70 °FPassing clouds.2 mph88%29.72 "Hg9 mi
9:00 PM67 °FPassing clouds.2 mph90%29.75 "Hg9 mi
8:00 PM67 °FPartly sunny.3 mph88%29.77 "Hg16 mi
7:00 PM69 °FScattered clouds.5 mph80%29.79 "Hg16 mi
6:00 PM71 °FPartly sunny.3 mph77%29.81 "Hg16 mi
5:00 PM69 °FPartly sunny.5 mph77%29.83 "Hg16 mi
4:00 PM68 °FPartly sunny.3 mph78%29.87 "Hg9 mi
Weather by CustomWeather, © 2015

See weather overviewHow to use our weather pages